Regional Weather Roundup
Issued by NWS Bismarck, ND

Home | Current Version | Previous Version | Text Only | Print | Product List | Glossary On
Versions: 1 2 3 4 5 6 7 8 9 10 11 12 13 14 15 16 17 18 19 20 21 22 23 24 25 26 27 28 29 30 31 32 33 34 35 36 37 38 39 40 41 42 43 44 45 46 47 48 49 50
000
ASUS43 KBIS 170210
RWRBIS

NWR BROADCAST TEXT
NATIONAL WEATHER SERVICE BISMARCK ND
800 PM CST MON JAN 16 2017

NOTE: "FAIR" INDICATES FEW OR NO CLOUDS BELOW 12,000 FEET WITH NO
SIGNIFICANT WEATHER AND/OR OBSTRUCTIONS TO VISIBILITY.


CITY           SKY/WX    TMP DP  RH WIND       PRES   REMARKS
WILLISTON      FAIR      11   8  88 SW5       30.08S WCI   3
MINOT          FAIR      19  14  81 SW5       30.04S WCI  12
MINOT AFB      NOT AVBL
BISMARCK       FAIR      13   4  67 W5        30.08F WCI   5
DICKINSON      FAIR      16  11  80 W14       30.03F WCI   2
GARRISON         N/A     12   7  80 CALM      30.06S
HETTINGER ARPT FAIR      10   6  84 NW6       30.07F WCI   0
JAMESTOWN      FAIR      11   8  88 NW5       30.02S WCI   3
CARRINGTON     FAIR      12   9  85 W12       30.04F WCI  -2
HAZEN            N/A    N/A N/A N/A SW3       30.10R
MANDAN         FAIR      12  10  92 W9        30.07F WCI   0
RUGBY            N/A      9   9 100 W5        30.03S WCI   0
STANLEY        FAIR      14  12  92 W3        30.06S
TIOGA          FAIR      10  10 100 CALM      30.05F
WATFORD CITY   FAIR       9   7  92 SW5       30.07F WCI   0
$$

CITY           SKY/WX    TMP DP  RH WIND       PRES   REMARKS
GRAND FORKS    FAIR       5   1  83 S6        30.04S WCI  -6
GRAND FORKS AF FAIR       9   4  80 CALM      30.03F
DEVILS LAKE    NOT AVBL
FARGO          FAIR       9   6  88 S6        30.05F WCI  -1
CAVALIER         N/A      7   1  78 CALM      30.03S
GRAFTON        FAIR       5   1  85 CALM      30.05S
GWINNER        FAIR      10   9  92 SW3       30.05S
ROLLA            N/A    N/A N/A N/A MISG        N/A
$$

CITY           SKY/WX    TMP DP  RH WIND       PRES   REMARKS
ABERDEEN       FAIR       5   2  87 NW6       30.07S WCI  -6
MOBRIDGE       FAIR      10   4  76 N5        30.04F WCI   2
BUFFALO          N/A     17   9  70 W7        30.00F WCI   8
RAPID CITY     FAIR      27  15  61 N16       30.08F WCI  15
GLASGOW        FAIR       7   2  80 E8        30.03F WCI  -6
SIDNEY         FAIR      10   6  84 S8        30.09S WCI  -2
WOLF POINT     FAIR       8   3  80 CALM      30.07F
GLENDIVE       FAIR      10   4  76 S7        30.08F WCI  -1
MILES CITY     FAIR      14   4  64 S8        30.07F WCI   3
BAKER          FAIR       5   1  83 NW3       30.07F
$$

CITY           SKY/WX    TMP DP  RH WIND       PRES   REMARKS
BILLINGS       FAIR      23   8  52 SW23      30.05S WCI   7
GREAT FALLS    FAIR      31  18  58 S21       29.97F WCI  18
REGINA         PTCLDY    14  12  92 SE12      29.93F WCI   0
ESTEVAN        PTCLDY    10   7  85 SW12      30.03S WCI  -4
$$





USA.gov is the U.S. government's official web portal to all federal, state and local government web resources and services.